Location: ????????
(55.6189°N, 38.3031°E)
Time: 23:41:08
(UTC+00:00)

USA 234 - Pass Details

Date: 15 November 2019
Orbit: 1099 x 1108 km, 123.0° (Epoch: 30 November)

Event Time Altitude Azimuth Distance (km) Brightness Sun altitude
Rises 03:32:33 0° 114° (ESE) 3,911 8.1 -12.2°
Reaches altitude 10° 03:35:02 10° 116° (ESE) 2,955 7.0 -11.8°
Maximum altitude 03:41:34 78° 202° (SSW) 1,128 3.3 -10.9°
Enters shadow 03:47:40 12° 289° (WNW) 2,784 4.7 -10.1°
